Regional Weather Roundup
Issued by NWS

Home | Current Version | Previous Version | Text Only | Print | Product List | Glossary Off
Versions: 1 2 3 4 5 6 7 8 9 10 11 12 13 14 15 16 17 18 19 20 21 22 23 24 25 26 27 28 29 30 31 32 33 34 35 36 37 38 39 40 41 42 43 44 45 46 47 48 49 50

000
ASUS43 KFSD 310502
RWRSD

WEATHER ROUNDUP FOR SOUTH DAKOTA
NATIONAL WEATHER SERVICE SIOUX FALLS SD
1200 AM CDT WED AUG 31 2016

NOTE: "FAIR" INDICATES FEW OR NO CLOUDS BELOW 12,000 FEET WITH NO
SIGNIFICANT WEATHER AND/OR OBSTRUCTIONS TO VISIBILITY.


SDZ001>005-009-010-012>017-310600-
NORTHWEST AND NORTH CENTRAL SOUTH DAKOTA

CITY           SKY/WX    TMP DP  RH WIND       PRES   REMARKS
BUFFALO          N/A     71  59  65 S17       30.10R
MOBRIDGE       CLEAR     66  59  78 E8        30.15R
$$

SDZ012>016-024>037-041>051-057-063-072>074-310600-
SOUTHWEST AND SOUTH CENTRAL SOUTH DAKOTA

CITY           SKY/WX    TMP DP  RH WIND       PRES   REMARKS
RAPID CTY ARPT CLEAR     65  58  78 S6        30.21R
PIERRE         CLEAR     68  63  84 MISG      30.15R
CUSTER         CLEAR     66  50  56 VRB5      30.36R
ELLSWORTH AFB  CLEAR     68  60  75 SW7       30.20R
PHILIP         CLEAR     69  63  81 E5        30.16S
PINE RIDGE     CLEAR     65  59  81 S8        30.23R
WINNER         FAIR      73  64  73 S13       30.19R
$$

SDZ004>011-016>023-039-040-310600-
NORTHEAST SOUTH DAKOTA

CITY           SKY/WX    TMP DP  RH WIND       PRES   REMARKS
ABERDEEN       CLOUDY    65  55  70 SE7       30.19R
WATERTOWN      PTCLDY    64  58  80 CALM      30.22S
SISSETON         N/A     57  55  93 CALM      30.20S
$$

SDZ017-020-022-023-036>040-048>070-310600-
SOUTHEAST SOUTH DAKOTA

CITY           SKY/WX    TMP DP  RH WIND       PRES   REMARKS
SIOUX FALLS    PTCLDY    64  62  93 CALM      30.20S
HURON          MOCLDY    69  62  78 SE8       30.19R
CHAMBERLAIN    CLOUDY    71  68  90 SE8       30.18R
MITCHELL       CLEAR     69  64  84 E6        30.19R
YANKTON        PTCLDY    70  66  88 E3        30.17F
$$

ABBREVIATIONS USED IN REMARKS
   TC - TEMPERATURE IN CELSIUS
  WCI - WIND CHILL INDEX
   HX - HEAT INDEX
  VSB - VISIBILITY





USA.gov is the U.S. government's official web portal to all federal, state and local government web resources and services.